Le nostre stazioni meteo in Italia

Pubblicità
Il mio iltempo24.it
Guidonia, Italia (16234): Temperatura & dewpoint: 13.04.2019 17:00:00 - 19.04.2019 17:00:00 (CEST)Guidonia, Italia (16234): velocità del vento: 13.04.2019 17:00:00 - 19.04.2019 17:00:00 (CEST)Guidonia, Italia (16234): direzione del vento: 13.04.2019 17:00:00 - 19.04.2019 17:00:00 (CEST)Guidonia, Italia (16234): reduced air pressure: 13.04.2019 17:00:00 - 19.04.2019 17:00:00 (CEST)Guidonia, Italia (16234): visibility: 13.04.2019 17:00:00 - 19.04.2019 17:00:00 (CEST)
Data & Tempo tt [°C] td [°C] ff [km/h] ff [kn] dd ppp [hPa] vv [km]
19.04.2019 17:00:00 21,6 5,5 21 11 SSO 1025,6 40
19.04.2019 16:00:00 22,0 6,0 24 13 SO - 10
19.04.2019 15:00:00 22,0 5,0 16 9 O - 10
19.04.2019 14:00:00 22,0 5,0 9 5 OSO 1025,7 30
19.04.2019 13:00:00 22,0 6,0 13 7 OSO - 10
19.04.2019 12:00:00 21,0 5,0 11 6 OSO - 10
19.04.2019 11:00:00 19,4 5,5 9 5 ONO 1026,7 30
19.04.2019 10:00:00 17,0 7,0 8 4 NO - 10
19.04.2019 09:00:00 15,0 6,0 9 5 ONO - 10
19.04.2019 08:00:00 10,8 6,9 4 2 SSO 1026,2 30
19.04.2019 07:00:00 9,0 6,0 5 3 N - 10
19.04.2019 06:00:00 - - - - - - -
19.04.2019 05:00:00 - - - - - - -
19.04.2019 04:00:00 - - - - - - -
19.04.2019 03:00:00 - - - - - - -
19.04.2019 02:00:00 - - - - - - -
19.04.2019 01:00:00 - - - - - - -
19.04.2019 00:00:00 - - - - - - -
18.04.2019 23:00:00 - - - - - - -
18.04.2019 22:00:00 - - - - - - -
18.04.2019 21:00:00 - - - - - - -
18.04.2019 20:00:00 18,6 4,8 11 6 NO 1022,4 25
18.04.2019 19:00:00 20,0 6,0 11 6 OSO - 10
18.04.2019 18:00:00 20,0 6,0 16 9 SO - 10
18.04.2019 17:00:00 21,8 6,5 16 9 OSO 1020,6 20
18.04.2019 16:00:00 22,0 7,0 16 9 SO - 10
18.04.2019 15:00:00 23,0 6,0 15 8 O - 10
18.04.2019 14:00:00 22,0 5,4 8 4 O 1021,3 20
18.04.2019 13:00:00 22,0 6,0 13 7 SO - 10
18.04.2019 12:00:00 20,0 4,0 5 3 NNO - 10
18.04.2019 11:00:00 18,8 5,6 5 3 SO 1022,2 25
18.04.2019 10:00:00 16,0 8,0 5 3 O - 10
18.04.2019 09:00:00 14,0 9,0 13 7 O - 10
18.04.2019 08:00:00 10,2 9,9 5 3 N 1022,1 25
18.04.2019 07:00:00 8,0 8,0 4 2 NNE - 10
18.04.2019 06:00:00 - - - - - - -
18.04.2019 05:00:00 - - - - - - -
18.04.2019 04:00:00 - - - - - - -
18.04.2019 03:00:00 - - - - - - -
18.04.2019 02:00:00 - - - - - - -
18.04.2019 01:00:00 - - - - - - -
18.04.2019 00:00:00 - - - - - - -
17.04.2019 23:00:00 - - - - - - -
17.04.2019 22:00:00 - - - - - - -
17.04.2019 21:00:00 - - - - - - -
17.04.2019 20:00:00 17,2 8,9 9 5 SO 1019,6 20
17.04.2019 19:00:00 19,0 9,0 13 7 SO - 10
17.04.2019 18:00:00 20,0 9,0 16 9 OSO - 10
17.04.2019 17:00:00 21,4 10,0 21 11 OSO 1018,5 20
17.04.2019 16:00:00 22,0 7,0 9 5 NO - 10
17.04.2019 15:00:00 22,0 6,0 8 4 SO - 10
17.04.2019 14:00:00 21,0 7,3 11 6 OSO 1019,6 20
17.04.2019 13:00:00 20,0 9,0 8 4 ONO - 10
17.04.2019 12:00:00 19,0 9,0 8 4 S - 10
17.04.2019 11:00:00 16,6 9,1 4 2 SSE 1020,5 20
17.04.2019 10:00:00 14,0 7,0 4 2 S - 10
17.04.2019 09:00:00 10,0 6,0 4 2 SE - 10
17.04.2019 08:00:00 7,0 7,0 2 1 N 1020,8 30
17.04.2019 07:00:00 6,0 6,0 8 4 NE - 10
17.04.2019 06:00:00 - - - - - - -
17.04.2019 05:00:00 - - - - - - -
17.04.2019 04:00:00 - - - - - - -
17.04.2019 03:00:00 - - - - - - -
17.04.2019 02:00:00 - - - - - - -
17.04.2019 01:00:00 - - - - - - -
17.04.2019 00:00:00 - - - - - - -
16.04.2019 23:00:00 - - - - - - -
16.04.2019 22:00:00 - - - - - - -
16.04.2019 21:00:00 - - - - - - -
16.04.2019 20:00:00 16,0 9,0 11 6 OSO 1020,4 20
16.04.2019 19:00:00 17,0 8,0 13 7 O - 10
16.04.2019 18:00:00 18,0 6,0 16 9 O - 10
16.04.2019 17:00:00 19,0 6,8 21 11 SO 1019,4 20
16.04.2019 16:00:00 19,0 8,0 21 11 SO - 10
16.04.2019 15:00:00 20,0 7,0 18 10 SO - 10
16.04.2019 14:00:00 20,2 8,9 18 10 SSO 1019,5 20
16.04.2019 13:00:00 19,0 7,0 11 6 OSO - 10
16.04.2019 12:00:00 20,0 8,0 11 6 S - 10
16.04.2019 11:00:00 18,2 7,6 13 7 S 1019,9 30
16.04.2019 10:00:00 17,0 8,0 9 5 SE - 10
16.04.2019 09:00:00 13,0 8,0 8 4 SE - 10
16.04.2019 08:00:00 8,0 5,8 2 1 SO 1020,3 30
16.04.2019 07:00:00 8,0 8,0 4 2 ENE - 10
16.04.2019 06:00:00 - - - - - - -
16.04.2019 05:00:00 - - - - - - -
16.04.2019 04:00:00 - - - - - - -
16.04.2019 03:00:00 - - - - - - -
16.04.2019 02:00:00 - - - - - - -
16.04.2019 01:00:00 - - - - - - -
16.04.2019 00:00:00 - - - - - - -
15.04.2019 23:00:00 - - - - - - -
15.04.2019 22:00:00 - - - - - - -
15.04.2019 21:00:00 - - - - - - -
15.04.2019 20:00:00 17,0 5,9 8 4 S 1016,7 20
15.04.2019 19:00:00 20,0 5,0 5 3 NNE - 10
15.04.2019 18:00:00 20,0 5,0 8 4 NE - 10
15.04.2019 17:00:00 20,8 5,2 8 4 N 1015,3 20
15.04.2019 16:00:00 20,0 5,0 11 6 E - 10
15.04.2019 15:00:00 21,0 5,0 15 8 E - 10
15.04.2019 14:00:00 20,4 5,6 15 8 NNE 1015,2 20
15.04.2019 13:00:00 19,0 5,0 21 11 NNO - 10
15.04.2019 12:00:00 18,0 8,0 18 10 NO - 10
15.04.2019 11:00:00 16,2 5,8 21 11 NNO 1014,7 50
15.04.2019 10:00:00 14,0 6,0 22 12 NNO - 10
15.04.2019 09:00:00 7,0 6,0 8 4 SSE - 10
15.04.2019 08:00:00 5,0 4,6 4 2 ESE 1013,5 50
15.04.2019 07:00:00 4,0 4,0 5 3 N - 10
15.04.2019 06:00:00 - - - - - - -
15.04.2019 05:00:00 - - - - - - -
15.04.2019 04:00:00 - - - - - - -
15.04.2019 03:00:00 - - - - - - -
15.04.2019 02:00:00 - - - - - - -
15.04.2019 01:00:00 - - - - - - -
15.04.2019 00:00:00 - - - - - - -
14.04.2019 23:00:00 - - - - - - -
14.04.2019 22:00:00 - - - - - - -
14.04.2019 21:00:00 - - - - - - -
14.04.2019 20:00:00 - - - - - - -
14.04.2019 19:00:00 - - - - - - -
14.04.2019 18:00:00 - - - - - - -
14.04.2019 17:00:00 - - - - - - -
14.04.2019 16:00:00 - - - - - - -
14.04.2019 15:00:00 - - - - - - -
14.04.2019 14:00:00 - - - - - - -
14.04.2019 13:00:00 - - - - - - -
14.04.2019 12:00:00 - - - - - - -
14.04.2019 11:00:00 - - - - - - -
14.04.2019 10:00:00 - - - - - - -
14.04.2019 09:00:00 - - - - - - -
14.04.2019 08:00:00 - - - - - - -
14.04.2019 07:00:00 - - - - - - -
14.04.2019 06:00:00 - - - - - - -
14.04.2019 05:00:00 - - - - - - -
14.04.2019 04:00:00 - - - - - - -
14.04.2019 03:00:00 - - - - - - -
14.04.2019 02:00:00 - - - - - - -
14.04.2019 01:00:00 - - - - - - -
14.04.2019 00:00:00 - - - - - - -
13.04.2019 23:00:00 - - - - - - -
13.04.2019 22:00:00 - - - - - - -
13.04.2019 21:00:00 - - - - - - -
13.04.2019 20:00:00 - - - - - - -
13.04.2019 19:00:00 - - - - - - -
13.04.2019 18:00:00 - - - - - - -
13.04.2019 17:00:00 - - - - - - -

tt = Temperatura
td = dewpoint
ff = velocità del vento
dd = direzione del vento
ppp = reduced air pressure
vv = visibility

Stazioni seguenti

WeatherPro
AMSI
MeteoEarth